Terug naar catalogus

BREEZE-M DEB

ActiefHEO
NORAD 34250·DEBRIS·🇷🇺 Russia

Gelanceerd Feb 28, 2006 vanaf Baikonur Cosmodrome

Loading…

Volgende Passages (komende 24 uur)

TLE

VersSource: Space-Track

Epoch: Sep 13, 2026, 21:49 UTC

1 34250U 06006BR  26256.90970369  .00001025  00000-0  17994-2 0  9990
2 34250  51.6944 114.0633 5025770  50.7291 344.2014  5.33256915 42163

Volg BREEZE-M DEB in realtime met AllMySat

Download on the App Store